RH
70 52 35 24 23 19 20 20 17 15 13 13 12 12 13 12 11 11 10 10 10 11 13 14 14 18 29 39 50 60 66 69 72 73 71 71 65 57
40 32 35 26 24 24 22 19 16 14 13 12 11 12 12 12 12 12 11 10 10 11 12 14 15 18 27 40 49 54 59 64 72 75 73 74 78 69
47 36 39 30 22 18 16 16 14 13 13 12 11 11 11 11 12 13 12 11 10 11 12 14 15 17 23 33 41 45 48 57 66 78 80 82 82 82
75 59 64 35 26 21 18 15 13 12 12 12 11 11 11 11 11 12 12 12 11 10 12 14 15 17 19 25 34 38 47 64 62 76 82 86 88 88
84 76 73 50 28 18 17 16 14 12 12 11 12 11 11 11 11 11 11 11 11 11 12 13 15 15 18 22 25 31 43 59 54 53 74 83 94 94
90 81 77 54 32 18 16 16 15 13 12 12 11 11 11 11 11 11 11 10 11 12 10 10 12 15 16 19 22 22 25 37 47 42 73 82 91 88
78 78 74 59 26 17 16 15 16 15 14 13 12 12 12 12 12 11 10 10 10 11 11 10 11 14 16 18 21 20 20 23 36 39 68 81 79 83
80 78 74 48 29 16 15 15 15 16 16 14 13 13 13 12 12 11 11 11 10 11 11 11 11 12 18 17 18 21 19 20 27 33 64 67 85 83
65 59 44 29 24 18 16 16 15 16 16 15 14 14 13 13 12 13 12 11 12 11 11 10 13 13 20 19 20 23 22 21 23 30 62 66 82 88
39 30 26 25 22 20 20 18 17 16 16 16 16 15 14 13 14 14 13 13 13 12 11 11 13 13 13 16 22 24 25 20 21 30 59 70 77 85
67 36 28 29 27 24 22 20 20 18 18 17 17 16 16 15 16 15 16 15 14 14 13 13 14 13 13 14 17 17 19 21 24 34 50 60 79 85
84 51 37 35 32 28 25 23 21 20 19 18 18 18 18 17 16 17 18 17 15 14 13 15 15 16 14 12 15 15 20 25 31 40 47 55 72 72
65 54 41 38 36 32 28 25 24 23 22 21 21 22 21 20 19 21 20 17 16 15 17 16 16 14 13 12 14 18 22 31 37 43 49 53 70 76
78 66 55 47 41 38 34 31 31 28 27 26 24 24 24 23 23 24 20 19 20 18 20 22 17 17 18 17 17 23 27 34 37 40 43 65 71 72
91 78 69 57 49 42 40 37 36 34 31 29 28 25 25 26 25 23 24 23 22 22 26 25 23 29 33 28 23 26 30 40 50 54 69 60 66 70
99 93 87 76 56 50 44 42 40 36 33 30 29 29 30 30 28 26 26 27 24 23 29 32 39 46 44 37 36 34 43 44 49 56 78 84 98 100
99 94 79 69 64 58 53 49 46 43 41 38 36 35 34 35 34 32 31 31 30 28 28 35 45 51 58 50 46 50 45 53 74 75 91 80 96 91
97 97 96 90 77 70 64 57 54 52 49 46 44 43 41 40 39 39 38 36 35 34 33 35 41 40 46 54 57 63 73 57 74 84 73 79 87 85
97 98 97 98 97 97 88 74 67 63 59 56 54 52 50 47 45 45 44 43 40 40 41 40 39 36 31 30 40 65 66 69 70 76 84 90 89 87
96 96 96 97 97 98 97 96 91 76 71 68 65 64 61 57 56 55 53 51 48 46 45 44 46 56 52 43 36 39 59 69 78 77 66 76 81 88
94 95 95 96 96 95 95 96 97 96 87 82 79 76 73 71 68 66 64 62 59 56 53 52 58 79 84 63 47 40 55 78 67 90 84 98 98 80
82 82 81 82 83 84 86 90 92 89 89 89 89 89 88 84 83 80 76 72 70 67 63 61 62 66 68 63 47 41 39 56 91 95 100 99 98 84
68 69 71 73 73 74 74 75 77 79 80 81 82 83 81 79 78 77 77 76 76 76 76 71 71 74 77 78 71 64 69 72 86 96 96 100 99 87
Wind_Speed
22 22 21 19 19 18 16 14 12 10 8 6 3 2 4 6 8 9 10 11 12 12 12 13 13 13 10 10 10 10 11 12 11 11 12 13 13 12
21 20 23 20 19 18 18 17 14 11 9 7 5 4 4 6 8 10 12 14 14 14 14 14 14 13 12 12 12 13 13 14 14 13 14 15 14 13
21 23 23 23 20 19 18 17 15 13 11 9 8 7 7 8 9 10 12 14 16 16 15 15 15 15 14 14 15 16 16 16 16 16 17 17 15 15
25 24 24 23 21 19 19 18 17 16 14 12 10 11 11 11 12 13 14 15 17 18 17 17 16 16 16 16 17 18 18 17 19 19 20 20 18 17
28 26 25 25 23 22 22 21 20 19 17 14 13 13 13 14 14 15 16 17 19 20 19 18 18 18 17 18 19 20 20 20 21 22 22 21 20 19
32 30 29 27 25 24 25 23 23 22 20 18 17 17 16 17 17 17 18 19 18 20 21 21 21 19 19 21 22 23 23 23 23 24 22 22 21 23
36 32 31 29 27 27 27 26 26 26 24 23 22 21 21 20 20 21 21 21 20 20 20 20 21 23 22 24 25 26 26 24 23 25 22 22 22 20
39 36 35 32 30 28 28 28 29 29 27 27 26 25 25 25 23 23 24 23 22 21 20 20 21 23 24 27 27 27 27 26 25 25 24 23 22 23
40 38 36 35 33 31 30 31 32 31 30 30 30 28 28 29 26 25 25 25 24 23 22 20 23 24 26 28 30 30 29 29 28 27 24 24 23 23
39 37 36 36 35 35 35 34 33 32 33 33 34 32 31 30 28 27 28 28 26 25 27 26 26 28 29 29 31 33 31 29 29 29 26 26 25 27
40 40 40 39 38 38 37 36 36 35 36 36 36 35 33 32 31 31 29 30 29 26 28 33 29 31 33 30 31 33 31 29 29 28 28 28 28 28
45 45 43 41 39 39 38 38 38 37 40 39 38 36 35 35 34 32 32 32 33 32 27 34 33 34 35 29 29 32 31 30 30 30 30 30 30 30
47 46 46 44 42 40 39 40 40 40 41 41 40 39 38 35 34 34 34 35 35 34 31 33 36 35 36 37 27 28 28 28 30 30 31 31 31 32
49 46 44 44 44 42 42 42 41 43 42 42 40 39 37 36 35 35 36 37 36 36 35 36 38 35 36 37 36 27 26 28 31 31 29 28 31 34
49 46 46 45 45 47 42 43 42 41 41 40 39 39 37 37 37 36 37 39 38 38 38 38 38 36 37 38 39 35 31 28 31 31 30 30 31 32
64 61 54 52 50 48 46 44 42 41 41 41 41 41 41 40 40 39 38 39 41 40 39 39 37 37 39 40 42 40 37 35 29 29 33 31 30 33
51 51 51 49 46 47 46 45 45 44 44 44 44 44 43 42 42 41 42 42 43 43 42 40 39 40 42 44 45 43 40 37 31 31 35 36 34 35
42 46 45 44 47 47 47 48 48 46 46 46 47 47 47 46 46 46 45 46 46 45 45 44 42 44 47 47 46 45 44 42 36 38 35 40 40 37
41 44 46 46 51 53 53 49 48 48 48 48 49 49 49 50 50 50 49 48 48 48 48 48 48 47 49 50 48 44 47 44 43 43 42 43 43 35
41 40 41 42 44 45 48 50 48 48 49 49 48 48 50 52 52 53 52 51 51 51 51 50 48 45 48 51 53 50 45 46 46 46 44 40 42 43
44 44 45 46 48 50 50 50 51 51 51 51 51 50 50 52 52 52 52 52 53 53 54 52 49 46 48 52 54 53 47 46 45 43 41 43 46 44
44 46 47 48 47 48 49 49 50 51 51 52 53 53 54 55 55 55 54 54 54 55 55 54 51 50 52 53 52 51 50 46 41 41 43 44 45 46
44 45 46 47 47 48 49 49 50 51 52 52 52 52 53 54 55 55 55 54 54 54 55 55 53 50 50 49 49 48 47 44 42 43 44 43 43 43
Wind_Direction
227 229 228 225 217 221 216 215 204 195 204 193 184 241 281 313 322 328 328 328 324 325 327 327 324 325 326 323 322 321 321 321 321 324 324 323 317 311
222 220 217 216 216 214 215 217 216 206 215 222 223 249 284 302 315 325 327 325 323 322 324 323 319 317 314 310 309 310 311 311 311 312 318 321 314 310
213 212 211 214 216 216 217 218 217 219 220 235 250 270 288 303 309 314 316 319 319 319 319 315 312 310 307 304 305 306 306 307 305 304 308 311 310 300
212 213 213 217 220 225 226 228 228 229 232 239 255 268 284 299 305 309 309 313 314 316 314 310 309 306 305 302 300 303 301 301 303 300 300 301 300 300
216 218 220 222 226 229 230 231 236 239 243 247 256 266 276 288 295 301 303 308 310 312 309 304 304 305 305 301 300 297 300 298 303 305 301 299 288 290
224 224 226 227 232 237 236 234 237 242 248 255 263 269 274 282 288 292 295 302 304 301 304 305 307 305 304 301 300 298 296 295 298 300 294 297 280 284
226 228 231 233 236 238 240 241 242 245 249 255 263 270 273 278 281 285 291 295 300 301 299 301 301 302 305 301 300 301 299 295 296 298 291 291 283 284
229 232 234 237 239 239 239 242 244 247 250 255 260 266 270 274 277 282 289 292 294 298 298 296 297 300 296 295 296 296 298 296 294 294 287 290 281 280
232 235 237 239 240 242 241 242 244 247 251 255 258 262 265 270 275 279 283 284 288 291 290 289 292 294 292 292 295 296 296 292 292 291 287 285 281 281
231 234 237 239 240 242 244 245 246 248 252 255 258 260 264 269 272 274 275 277 282 284 286 286 291 293 292 293 291 293 293 289 288 288 283 281 279 278
234 236 237 238 241 244 245 249 250 251 252 254 257 259 262 265 268 271 270 274 277 278 282 287 291 294 296 297 295 295 290 287 286 283 280 280 279 277
236 237 240 240 241 245 248 250 252 254 254 255 257 260 262 264 265 266 267 271 275 277 280 285 291 297 296 295 292 290 291 286 281 280 279 276 276 275
235 236 237 241 243 244 247 250 251 252 255 257 259 260 260 259 263 265 268 272 275 280 284 284 291 296 296 298 294 290 289 281 280 279 280 278 273 274
233 236 241 243 245 245 244 246 250 252 254 256 257 257 254 257 259 262 267 272 275 280 283 287 290 292 292 293 296 293 285 281 280 281 284 280 273 272
232 235 240 243 245 247 248 248 248 250 253 255 255 255 256 256 257 260 263 268 271 277 280 284 287 288 289 292 294 292 290 283 281 286 282 281 280 275
239 245 245 242 242 243 244 245 247 248 248 250 252 254 256 258 259 261 263 268 272 276 277 281 284 285 288 290 289 290 292 291 285 284 285 285 277 282
231 232 233 235 238 240 242 243 246 247 249 251 252 254 255 257 260 263 265 268 270 273 275 276 278 280 282 284 287 291 298 294 289 288 276 280 268 282
236 233 232 232 236 238 241 243 244 248 251 254 256 257 259 259 260 262 263 265 268 271 274 275 275 275 276 277 281 285 285 287 281 278 283 279 278 282
237 238 239 239 244 244 243 244 248 248 250 254 257 260 262 262 263 265 266 267 268 269 272 274 276 278 278 278 278 273 277 283 281 284 279 283 277 279
244 245 246 247 247 247 248 247 250 253 255 256 256 258 261 263 265 267 269 270 270 271 272 273 275 276 275 276 278 277 276 277 278 281 280 276 272 275
252 252 251 251 252 252 251 251 251 252 255 258 259 259 260 263 265 267 269 270 270 271 271 272 273 271 272 275 276 279 277 277 278 277 278 273 275 278
252 253 253 254 253 253 255 255 255 256 256 257 258 260 261 262 263 265 266 267 269 271 271 272 272 270 270 272 275 276 276 273 271 267 271 274 276 278
251 253 255 256 256 256 255 256 257 258 259 259 259 259 260 261 262 263 264 265 267 268 270 271 271 271 271 271 271 272 273 275 276 271 269 275 279 282